Location: Killarney
(45.9719°N, 81.5115°W)
Time: 06:04:20
(UTC-04:00)

ISS - Visible Passes

Search period start: 28 May 2022 00:00
Search period end: 07 June 2022 00:00
Orbit: 414 x 421 km, 51.6° (Epoch: 28 May)

Date Brightness Start Highest point End Pass type
(mag) Time Alt. Az. Time Alt. Az. Time Alt. Az.
28 May -3.0 22:48:45 10° WNW 22:51:54 39° SW 22:53:07 28° S visible
29 May -3.6 22:00:29 10° WNW 22:03:49 63° SSW 22:06:43 13° SE visible
30 May -1.7 22:49:51 10° W 22:52:02 16° SW 22:53:16 14° SSW visible
31 May -2.2 22:01:09 10° W 22:04:02 26° SW 22:06:51 10° SSE visible
02 Jun -1.1 22:03:11 10° WSW 22:03:56 11° SW 22:04:41 10° SW visible
